GFSNGP_500_spd_021.txt.gz
Wind_Speed
55 56 59 61 66 75 79 74 74 66 60 50 43 43 42 34 33 26 29 31 27 24 28 29 26 21 10 14 14 16 20 24 26 30 35 40 42 44 45 42 40 21 27 28
51 51 54 59 62 63 71 71 72 64 61 52 48 45 40 33 30 21 24 24 23 25 23 23 27 21 14 15 20 20 23 25 30 31 35 39 42 44 41 39 31 30 28 27
49 41 44 56 55 58 61 65 66 66 56 54 50 38 32 34 31 24 23 27 24 24 25 25 21 20 19 20 22 23 29 31 32 33 35 40 43 45 40 33 33 31 26 27
45 43 42 43 51 55 58 59 62 63 58 54 47 32 33 35 28 25 26 26 26 27 28 28 28 29 25 24 28 29 34 38 40 39 38 40 41 38 34 34 33 33 29 28
47 42 43 39 46 50 57 60 60 58 55 52 43 33 38 34 31 28 29 31 31 32 35 32 31 32 31 30 34 37 42 43 45 44 44 47 41 39 38 33 32 33 34 35
50 42 44 38 41 40 48 57 55 53 50 47 45 39 37 35 33 31 33 33 37 37 37 37 36 35 33 40 40 42 48 48 50 40 44 47 40 39 38 31 31 34 34 35
54 47 41 40 35 29 38 48 50 47 43 41 40 35 40 36 37 34 32 36 37 41 41 38 34 35 41 42 46 50 50 53 48 52 35 34 40 40 38 36 36 36 34 33
56 45 35 37 36 31 31 38 43 43 45 44 40 36 36 36 37 38 38 36 36 37 35 36 34 40 45 47 51 54 52 52 57 58 45 38 43 41 42 40 39 39 38 37
57 49 46 38 34 30 30 30 35 39 45 40 40 35 34 35 39 36 35 37 40 35 36 40 42 44 49 54 58 58 52 53 52 55 41 42 49 48 42 42 40 43 43 42
33 40 43 40 35 31 32 35 38 42 45 42 42 43 39 39 37 38 41 39 37 41 40 45 47 47 58 60 56 58 60 51 50 48 47 45 44 44 43 42 43 42 43 44
24 30 40 39 35 37 33 35 37 38 41 38 40 42 49 39 40 42 39 40 38 40 45 48 51 50 49 51 49 58 47 41 45 45 45 43 46 46 47 46 45 44 44 41
23 40 17 29 35 38 38 38 38 39 39 40 36 35 36 38 42 46 47 47 45 45 51 55 54 48 46 48 52 50 42 47 44 42 46 48 50 51 51 52 50 48 44 42
22 23 28 26 33 29 39 40 39 42 43 42 41 43 43 41 40 45 50 50 49 51 57 44 41 35 35 39 43 41 42 45 46 46 48 51 53 55 55 52 49 44 41 39
23 22 23 29 30 44 33 34 38 43 45 45 40 39 40 40 40 43 48 46 48 49 47 40 34 38 44 46 46 46 46 49 51 50 52 52 53 54 50 43 41 38 35 35
24 24 23 24 31 32 27 29 36 38 28 37 35 37 35 41 27 33 26 34 36 30 38 39 40 46 50 51 50 48 49 51 50 48 47 47 46 42 40 39 39 38 38 37
23 26 26 28 28 27 22 18 14 11 20 20 22 25 28 28 27 28 28 31 35 40 41 39 43 45 47 49 48 45 47 45 44 44 43 41 39 40 38 37 39 40 37 35
35 26 18 11 12 13 15 17 19 22 24 24 27 29 32 31 28 28 29 32 35 38 39 40 44 45 44 44 44 45 45 44 45 42 38 37 36 35 35 37 35 34 36 37
9 9 11 14 17 18 19 20 19 19 20 21 23 27 28 28 28 30 31 30 30 30 32 35 38 39 40 42 43 42 42 40 41 40 41 42 39 36 35 35 36 37 35 30
15 14 13 14 14 15 17 19 20 20 21 23 25 26 27 26 25 25 26 28 30 30 31 31 32 33 34 36 37 37 37 36 37 39 39 38 36 35 33 31 31 31 26 24
17 15 15 15 15 16 17 21 21 21 19 19 22 22 23 25 24 23 25 26 26 26 27 29 29 29 30 29 28 26 26 28 29 29 32 28 25 25 24 23 23 22 25 26
17 17 18 19 19 19 21 22 20 18 17 18 19 20 22 22 21 20 21 22 23 22 23 23 24 23 21 22 23 22 22 23 23 21 22 23 22 25 26 23 24 25 24 22
20 20 20 20 21 21 20 19 18 17 17 18 20 21 21 21 20 19 19 20 20 20 20 19 18 20 21 23 22 21 21 20 21 22 24 24 25 25 24 23 22 18 17 18
19 20 21 19 17 15 16 17 18 19 21 21 22 23 23 21 19 18 18 18 20 21 22 23 23 24 25 26 26 27 26 25 25 26 26 25 25 25 23 17 16 19 21 21
14 14 14 15 16 17 18 19 21 21 21 21 22 22 21 19 19 20 22 24 25 25 24 24 24 24 25 26 26 27 27 26 26 25 25 24 23 20 18 18 21 23 23 22
14 15 15 16 17 19 21 22 20 20 20 19 19 18 19 21 22 24 26 25 25 24 24 23 23 23 23 23 23 24 25 27 28 27 24 22 22 23 22 24 25 25 25 25
14 16 18 19 20 21 21 20 19 20 19 19 20 21 22 23 24 25 25 24 24 25 26 26 25 24 25 25 25 26 26 27 26 26 26 27 27 27 28 29 29 28 28 29
17 17 18 18 18 20 22 23 22 19 20 22 24 24 24 24 25 26 26 27 28 29 29 29 30 30 30 31 31 30 29 29 29 28 29 29 30 31 31 31 32 32 32 32

GFSNGP_500_spd_024.txt.gz
Wind_Speed
42 35 34 39 49 69 73 69 61 52 52 48 44 42 36 35 31 26 20 29 28 26 26 27 29 28 27 27 25 25 22 18 18 21 26 30 31 33 35 35 34 33 27 24
43 41 42 38 41 44 54 76 78 74 70 48 47 54 47 36 36 32 25 30 35 31 31 30 30 28 30 29 31 29 22 22 22 26 30 35 37 36 37 37 32 28 28 26
44 36 37 41 42 42 49 60 64 73 71 67 68 59 46 39 38 33 26 29 34 32 30 31 26 28 29 32 34 32 25 25 24 30 34 38 40 41 39 40 36 33 29 29
42 29 38 39 34 40 44 47 57 62 58 61 58 57 54 45 41 38 32 35 35 32 30 31 32 34 35 33 33 27 27 28 29 31 36 40 43 45 40 47 41 36 30 30
40 37 30 31 32 36 37 42 48 54 54 53 52 52 53 48 39 35 36 39 36 32 31 34 34 34 38 33 33 34 29 34 34 35 38 45 47 39 39 41 35 35 35 31
38 38 34 34 37 29 29 37 35 42 48 48 51 52 46 47 36 38 38 40 41 35 34 38 38 38 35 34 36 38 33 36 39 41 44 49 54 39 44 39 39 39 40 37
50 39 39 47 41 36 32 29 32 36 41 43 49 48 47 43 39 42 39 42 40 36 35 39 40 39 40 41 41 39 40 40 45 49 51 47 47 47 41 39 39 41 45 41
44 47 42 48 42 38 34 30 30 29 35 39 44 43 41 39 43 43 41 43 42 36 36 39 40 42 44 44 42 42 43 46 50 52 53 49 49 49 48 38 42 44 41 41
51 47 53 49 47 43 40 32 29 28 28 30 34 33 28 30 38 37 40 42 39 36 39 42 44 48 49 54 45 44 46 50 56 51 57 48 50 46 43 43 42 42 42 44
44 50 53 51 52 47 33 33 31 30 30 32 33 37 36 38 38 37 39 41 39 40 40 44 46 46 53 45 46 50 51 53 59 61 57 46 43 44 48 46 43 44 44 46
44 41 34 34 40 43 37 34 35 35 31 34 35 39 38 38 38 40 43 46 45 41 44 46 49 49 47 49 51 54 55 57 58 57 55 45 44 44 46 48 47 46 48 48
40 33 29 28 26 30 42 38 35 39 38 37 41 45 44 42 42 42 47 44 39 43 44 44 45 47 50 54 60 56 56 51 49 46 46 42 44 49 50 50 50 50 49 47
28 29 28 29 37 33 46 41 36 37 40 39 41 44 46 44 43 45 41 44 49 50 36 44 50 52 56 60 60 56 53 41 43 47 47 49 53 54 53 54 53 52 51 47
32 29 24 18 27 41 47 41 41 41 42 43 44 48 47 45 40 42 42 42 42 43 41 45 53 58 62 63 49 43 43 45 50 50 50 54 55 54 51 50 49 48 48 45
28 32 27 22 40 31 31 42 41 38 44 44 50 52 50 52 51 50 49 47 44 38 44 32 35 46 53 55 41 46 51 54 53 51 51 53 52 50 48 50 49 46 43 40
32 38 28 24 37 28 19 22 38 33 48 33 42 45 53 55 56 49 46 34 34 37 33 38 38 39 40 43 46 49 49 48 50 49 48 49 51 51 49 47 42 39 40 37
21 29 24 31 34 24 23 21 20 22 23 21 23 18 19 20 20 27 28 31 35 39 42 43 42 44 46 47 47 47 46 45 46 47 48 48 46 46 43 41 41 39 35 35
20 28 29 33 16 31 27 20 14 15 15 16 18 23 26 26 30 33 36 38 39 41 43 44 45 47 46 43 41 41 43 43 43 43 42 42 40 39 38 37 35 34 34 34
27 20 20 14 16 18 19 18 17 17 19 20 21 24 26 28 30 32 33 34 36 37 36 36 36 37 38 37 37 37 38 37 37 37 35 32 31 31 31 31 26 25 27 24
13 11 11 14 16 17 18 18 18 19 20 22 23 25 28 29 31 31 29 29 30 31 32 33 34 34 34 32 32 34 33 34 31 29 29 28 26 23 21 21 23 24 26 23
16 15 17 18 17 16 16 16 18 21 23 24 24 24 25 27 27 27 26 27 27 28 28 28 27 27 27 28 30 29 29 30 29 29 26 24 23 22 24 25 24 24 23 23
14 16 17 15 16 17 17 17 19 20 21 21 21 22 23 24 23 23 23 24 25 25 25 25 26 26 24 24 26 29 29 28 28 27 26 26 27 26 26 25 25 25 25 21
15 16 15 15 18 19 21 22 21 21 22 22 22 22 24 25 25 24 24 24 24 25 24 23 25 26 27 27 27 28 28 28 28 27 26 25 24 23 24 24 24 24 20 20
18 19 20 21 23 22 22 22 22 22 23 24 25 26 27 28 29 27 25 26 26 26 25 26 27 26 26 25 25 25 26 26 26 25 24 23 22 21 22 22 19 19 21 22
17 17 17 17 20 21 21 21 22 23 24 25 26 27 29 28 28 27 27 27 27 27 27 26 25 24 24 25 26 26 25 25 25 25 24 24 24 24 23 23 24 24 25 26
15 15 15 19 21 21 22 22 24 26 26 25 26 27 27 27 27 26 27 28 28 28 28 28 27 27 28 28 28 27 27 27 27 28 28 28 28 27 27 27 28 27 28 30
15 17 19 21 22 23 25 25 24 27 28 27 26 26 27 28 28 28 29 30 30 30 30 30 30 31 31 31 31 31 31 32 32 32 31 31 29 29 29 29 30 31 32 33

GFSNGP_500_spd_030.txt.gz
Wind_Speed
48 42 33 38 37 41 45 50 51 57 46 43 47 36 34 23 26 44 45 46 43 41 37 39 43 26 27 26 20 20 19 17 12 13 18 16 14 16 14 19 23 25 27 33
53 39 44 39 39 38 43 44 47 50 49 41 35 46 37 36 39 39 34 41 50 48 42 40 40 36 32 31 30 26 22 18 16 16 19 20 20 20 19 21 25 28 31 34
60 50 37 46 49 38 38 39 40 49 54 49 51 46 49 48 31 30 37 37 47 44 40 35 35 36 36 32 31 29 27 23 21 17 18 22 21 20 20 23 27 29 33 37
58 47 48 57 43 40 37 35 38 40 48 48 55 55 54 50 51 50 43 45 50 52 41 37 39 39 37 33 33 31 30 27 24 19 19 22 24 25 25 26 29 33 36 41
51 46 50 48 39 35 36 39 35 31 27 34 54 63 60 58 57 50 62 41 48 45 45 40 41 43 45 39 36 35 32 32 24 17 20 22 25 27 32 33 34 38 41 42
43 42 49 40 40 28 32 43 44 37 34 34 36 36 55 69 63 60 58 59 58 55 48 46 44 43 46 44 38 37 33 34 29 23 22 25 29 32 35 36 41 40 43 47
42 49 45 36 34 35 42 39 38 45 49 52 50 45 44 39 37 54 72 71 69 65 59 53 52 51 44 43 41 37 38 36 32 27 29 32 35 39 41 42 44 44 49 52
45 39 37 44 46 50 43 47 43 40 45 47 47 46 47 47 44 43 44 49 60 62 52 45 50 57 43 43 43 41 39 38 37 37 39 39 43 48 53 48 41 45 50 55
45 43 40 38 60 48 45 50 45 44 45 40 40 43 41 43 53 58 47 45 44 50 48 43 50 49 50 47 47 46 42 40 42 44 44 45 47 54 57 53 48 50 54 61
44 45 50 51 39 55 53 42 35 45 31 39 38 37 43 45 44 47 47 51 51 45 45 47 47 43 46 49 46 46 43 43 45 47 48 50 53 55 53 56 56 56 60 62
39 42 50 57 58 44 39 56 49 55 40 38 44 41 44 42 37 39 41 49 51 48 48 47 47 44 46 45 44 45 43 44 47 51 55 57 57 55 57 56 55 58 60 63
42 53 54 54 57 52 54 52 46 40 40 39 43 45 41 41 36 34 37 40 45 46 48 44 42 45 44 43 40 45 47 46 48 55 56 54 54 51 53 54 55 56 64 57
52 50 40 53 59 49 44 44 42 38 35 36 42 38 36 35 30 31 31 38 42 42 41 42 40 45 41 41 45 48 49 49 45 47 43 51 54 49 54 62 62 50 52 47
35 52 52 34 53 47 38 37 35 31 31 32 35 32 31 27 34 32 31 30 30 32 33 39 37 36 40 39 37 44 44 46 45 49 57 46 53 54 58 66 59 37 43 47
13 15 20 19 45 46 47 41 34 33 32 30 32 35 32 31 31 30 30 37 31 30 33 30 34 40 44 43 38 41 47 45 44 46 49 51 53 52 53 45 40 43 44 45
14 17 18 21 29 35 35 33 33 34 38 35 34 38 36 37 34 34 34 35 36 35 40 36 38 37 39 34 36 41 48 52 51 48 55 55 57 55 50 49 43 41 42 39
21 22 22 26 28 31 33 34 29 34 36 41 34 41 44 40 37 37 38 41 43 45 47 49 50 44 49 47 45 52 55 54 49 43 52 50 48 49 47 43 41 39 33 33
18 16 17 20 21 24 27 31 26 30 27 41 38 36 41 41 37 40 44 45 46 47 50 49 53 57 49 47 49 51 56 44 37 50 54 46 45 43 42 40 37 33 32 29
17 17 17 14 20 22 26 26 23 19 18 34 46 42 42 41 45 47 41 51 51 51 52 59 43 58 54 57 53 49 42 36 45 44 44 44 40 42 38 32 31 30 29 31
16 18 11 6 6 14 18 28 27 26 26 25 23 15 22 21 24 19 24 28 46 58 63 53 48 32 32 29 32 32 36 40 42 39 37 35 31 29 34 33 30 31 33 34
17 17 13 12 14 15 18 23 35 32 27 19 13 14 17 16 13 14 15 17 20 26 29 27 27 29 31 32 34 36 36 36 36 33 34 31 33 34 31 30 32 35 34 34
15 11 8 8 11 17 21 19 18 15 15 13 17 18 16 16 17 17 19 21 23 24 25 24 26 26 28 29 31 32 32 32 34 33 31 29 30 31 32 35 36 34 33 32
4 4 7 10 11 8 7 8 8 10 11 11 14 16 18 19 19 20 21 24 24 24 22 26 28 28 29 30 31 32 33 32 33 33 32 32 33 35 35 35 34 33 31 30
4 7 10 9 9 10 13 14 15 15 16 18 20 22 23 24 24 25 23 25 26 26 27 29 29 30 31 31 32 33 33 34 34 34 35 37 37 35 35 34 33 34 32 30
7 11 15 16 14 15 17 15 18 20 20 21 22 23 24 26 26 26 26 26 26 28 28 31 32 31 32 34 34 34 34 35 36 37 39 38 38 37 35 34 34 31 30 30
7 8 8 10 11 13 14 18 18 21 19 19 21 25 27 26 26 28 30 28 27 30 33 31 30 32 34 36 37 39 38 39 40 40 41 39 38 37 36 35 34 34 34 33
11 11 11 12 14 15 17 20 22 23 24 25 25 27 28 31 29 30 32 33 31 31 32 33 36 35 35 38 39 40 40 41 41 40 40 40 40 40 40 39 38 38 37 37

GFSNGP_500_spd_033.txt.gz
Wind_Speed
57 52 54 53 44 42 49 47 49 41 48 46 47 50 41 31 33 32 25 31 38 40 39 38 30 25 18 23 19 21 17 18 16 13 17 20 16 17 19 19 15 17 16 17
54 54 50 55 54 49 44 43 45 44 45 50 44 42 39 37 36 32 31 44 35 39 39 39 40 38 37 33 25 28 25 19 19 17 16 21 20 19 21 19 16 15 17 18
64 58 53 55 64 57 44 39 39 47 40 39 53 51 36 28 39 43 37 32 38 44 46 44 43 44 46 38 28 30 29 26 25 23 18 19 22 22 23 21 21 19 18 21
64 62 62 65 56 54 52 46 42 40 36 36 41 55 43 38 43 47 45 47 39 40 41 46 51 51 48 45 35 31 32 32 29 26 21 20 23 22 22 25 21 22 24 27
57 68 70 65 55 52 49 46 47 42 38 38 32 53 58 52 50 49 43 53 41 43 49 39 45 45 50 45 40 38 34 35 31 29 25 21 25 24 24 23 22 25 30 32
48 67 77 68 58 45 49 48 47 48 44 33 33 44 63 62 60 58 52 54 54 49 45 54 47 41 43 44 43 39 38 39 38 33 29 24 25 26 27 27 26 30 36 39
45 56 71 62 63 45 37 52 50 52 47 41 40 45 51 69 66 64 63 60 54 60 50 55 50 52 55 50 49 42 43 42 42 38 35 30 27 32 32 32 33 37 42 47
40 49 57 45 42 48 46 52 51 48 51 51 47 47 47 44 59 75 74 71 71 67 64 57 54 54 58 47 47 46 48 46 43 43 39 34 33 37 39 33 37 42 45 48
42 41 44 40 45 48 56 58 52 51 49 51 54 56 55 51 47 44 48 66 80 78 75 71 61 62 66 69 66 62 51 51 45 44 42 37 38 42 39 39 42 46 49 48
50 55 51 53 55 55 48 53 52 53 51 48 49 51 52 48 47 46 49 51 53 54 54 52 60 75 74 76 74 71 53 52 53 47 45 42 42 42 43 44 47 48 54 50
55 52 50 56 62 55 50 50 58 57 48 50 48 46 43 43 46 47 46 50 46 48 53 49 52 51 51 64 69 63 57 53 53 51 47 43 43 44 44 47 51 54 53 54
58 53 56 54 53 56 60 59 53 53 52 50 48 47 52 42 42 42 44 41 39 43 46 49 57 53 51 51 58 51 47 48 47 48 46 41 44 46 46 52 55 51 42 54
62 56 48 48 54 40 54 58 46 51 54 43 41 45 45 44 46 48 46 42 44 42 43 47 51 54 53 47 46 45 44 48 46 45 41 42 44 48 51 54 37 46 48 50
52 59 63 60 57 49 37 52 54 48 44 40 43 38 39 46 45 39 36 41 42 38 40 43 46 47 48 48 50 49 46 47 35 37 38 45 51 50 51 53 40 43 47 48
41 45 45 43 43 48 51 58 42 40 37 37 42 44 41 39 36 32 30 33 38 38 22 27 31 28 33 37 45 54 47 44 35 41 47 52 50 44 51 43 47 46 49 48
43 33 42 44 49 40 38 44 45 41 33 32 34 35 35 33 35 35 33 26 17 19 27 28 34 32 38 44 48 42 39 42 43 39 45 50 46 43 42 42 43 42 45 44
37 23 19 31 42 39 38 35 35 37 32 30 34 39 38 38 33 38 35 34 32 30 31 36 35 37 36 50 44 35 43 42 50 53 47 49 48 46 50 49 41 43 43 40
19 14 14 13 13 14 20 21 23 25 29 30 33 35 37 40 38 42 38 36 35 32 32 32 34 32 31 33 33 36 40 45 51 52 54 52 52 50 42 37 42 39 35 32
18 10 15 11 10 12 15 18 23 27 27 24 27 28 27 30 32 38 46 37 36 38 39 36 36 36 39 42 44 52 54 54 63 57 61 49 45 27 34 35 36 34 29 27
17 9 7 6 5 11 15 15 22 23 24 23 20 19 32 37 37 36 39 40 42 42 41 42 46 47 46 50 48 51 53 32 25 21 18 21 23 29 31 34 32 30 32 34
6 2 6 3 4 4 3 6 7 16 23 22 23 24 23 20 41 49 47 44 41 37 28 29 35 38 43 49 43 31 18 10 16 24 27 27 28 31 31 31 30 33 35 34
7 7 6 6 7 8 10 11 13 15 23 24 24 21 16 12 15 16 15 11 12 14 15 17 18 20 21 24 24 24 23 25 29 32 32 32 31 30 31 32 33 33 33 34
9 10 8 7 6 5 5 4 5 8 12 24 14 11 10 13 16 16 15 16 18 21 22 23 25 26 27 25 25 27 29 30 30 29 31 30 30 30 30 31 33 35 37 37
4 4 5 3 2 4 5 5 4 7 8 9 13 18 14 13 16 18 20 20 21 23 26 26 26 27 27 26 30 32 32 33 35 35 33 33 31 32 34 35 37 38 37 35
4 6 6 5 7 9 11 12 13 13 15 17 16 16 19 21 22 23 25 25 23 24 28 28 27 27 29 32 34 36 36 37 36 35 36 36 37 35 35 36 36 35 36 35
7 7 8 8 9 10 13 13 15 14 16 17 20 22 24 26 27 28 29 29 32 31 29 31 30 32 34 37 39 39 37 35 34 35 38 38 37 38 38 37 37 37 37 34
13 11 13 15 16 18 16 13 17 20 18 19 20 24 27 28 26 24 28 31 31 34 36 36 34 35 37 37 38 36 36 37 37 38 38 37 39 41 41 40 39 38 38 39